Regional Weather Roundup
Issued by NWS

Home | Current Version | Previous Version | Graphics & Text | Print | Product List | Glossary On
Versions: 1 2 3 4 5 6 7 8 9 10 11 12 13 14 15 16 17 18 19 20 21 22 23 24 25 26 27 28 29 30 31 32 33 34 35 36 37 38 39 40 41 42 43 44 45 46 47 48 49 50
000
ASUS45 KBOU 171907
RWRCO

WEATHER ROUNDUP FOR COLORADO
NATIONAL WEATHER SERVICE DENVER/BOULDER CO
100 PM MDT FRI APR 17 2015

NOTE: "FAIR" INDICATES FEW OR NO CLOUDS BELOW 12000 FEET WITH NO
SIGNIFICANT WEATHER AND/OR OBSTRUCTIONS TO VISIBILITY.

COZ001>005-013-030-031-172000-
...NORTHWEST COLORADO...

CITY           SKY/WX    TMP DP  RH WIND       PRES   REMARKS
CRAIG          CLOUDY    47  35  63 NW8       29.96R
HAYDEN         CLOUDY    43  34  70 SE13      29.96R
MEEKER         CLOUDY    45  37  73 MISG      29.94S
MOUNT WERNER   NOT AVBL
STEAMBOAT SPGS CLOUDY    45  30  54 CALM      29.94F
WALDEN         CLOUDY    34  30  86 NE6       30.02R VSB 1/2 WCI  29
$$

COZ006>008-011-172000-
...WEST CENTRAL VALLEYS...

CITY           SKY/WX    TMP DP  RH WIND       PRES   REMARKS
GRAND JUNCTION LGT SNOW  33  33 100 E6        30.03S FOG     WCI  28
MONTROSE       CLOUDY    37  32  82 E5        30.06S
EAGLE          LGT SNOW  36  34  93 SW8       29.99R FOG
RIFLE          CLOUDY    37  33  85 W9        30.02R
DELTA          LGT SNOW  37  35  94 E7        30.07R
NUCLA          NOT AVBL
$$

COZ017>023-064>068-172000-
...SOUTHWEST COLORADO...

CITY           SKY/WX    TMP DP  RH WIND       PRES   REMARKS
DURANGO        CLOUDY    41  16  36 W21       30.03S
CORTEZ         CLOUDY    39  24  55 SW12      30.08S
PAGOSA SPRINGS CLOUDY    40   4  22 NW9       30.02S
TELLURIDE      LGT SNOW  27  20  75 CALM      30.03S
WOLF CREEK PAS CLOUDY    19   1  45 SW18      30.03S WCI   4
$$

COZ009-010-012-014-032>034-037-058>063-172000-
...CENTRAL COLORADO...

CITY           SKY/WX    TMP DP  RH WIND       PRES   REMARKS
ASPEN          FLURRIES  33  30  88 N6        29.94F WCI  28
BUENA VISTA    PTSUNNY   31  23  72 S3        29.99F
COPPER MTN     CLOUDY    28  21  74 NE31G44   29.95R WCI  12
BERTHOUD PASS  HAZE      18  10  73 MISG      30.01F VSB<1/4
COTTONWOOD PAS CLOUDY    27  23  86 S6        29.98S FOG     WCI  20
GUNNISON       CLOUDY    30  23  74 CALM      30.03F
KREMMLING      LGT RAIN  37  32  81 N6        29.96F
LEADVILLE      LGT SNOW  27  21  78 W3        29.95F
SALIDA         CLOUDY    32  28  84 CALM      30.07F
SUNLIGHT       SNOW     N/A N/A N/A CALM      30.04R VSB 1/4
WILKERSON PASS CLOUDY   N/A N/A N/A S8        30.00F
$$

COZ069>075-172000-
...SAN LUIS VALLEY/SANGRE DE CRISTO MOUNTAINS...

CITY           SKY/WX    TMP DP  RH WIND       PRES   REMARKS
ALAMOSA        PTSUNNY   41  14  33 MISG      29.99F
LA VETA PASS   CLOUDY    30  16  55 S8        30.00F WCI  23
SAGUACHE       CLOUDY    32  25  74 CALM      30.02F
$$

COZ035-036-038>040-172000-
...NORTHERN COLORADO FRONT RANGE...

CITY           SKY/WX    TMP DP  RH WIND       PRES   REMARKS
DENVER INTL AP FOG       41  40  96 W13       29.97S VSB 1/2
DMNS CITY PARK   N/A     41  40  95 NW7       29.98S
AURORA         CLOUDY    40  40 100 NW9       29.98F
FRONT RANGE AP PTSUNNY   45  45 100 W9        29.98S
ERIE MUNI ARPT RAIN      41  40  97 NW6       30.00R
BOULDER MUN AP LGT RAIN  41  39  93 NW9G16    29.98F
CENTENNIAL     CLOUDY    39  37  92 NW5       29.98F
BROOMFIELD     CLOUDY    39  39 100 NW14      29.99
FORT COLLINS   CLOUDY    39  37  93 NW21      30.00F
LONGMONT       LGT RAIN  44  40  86 NW12G18   30.00F
$$

COZ041-046-047-076>085-087-088-172000-
...PIKES PEAK/PALMER DIVIDE AND SOUTHERN FOOTHILLS...

CITY           SKY/WX    TMP DP  RH WIND       PRES   REMARKS
COLO. SPRINGS  MOSUNNY   47  28  47 SE12      29.98F
A. F. ACADEMY  MOSUNNY   42  25  52 SE14      29.97S
ELLICOTT       SUNNY    N/A N/A N/A SW15      29.97F
FALCON         SUNNY     43  19  37 S15G21    30.00S
FORT CARSON    SUNNY     49  29  47 S5        29.96F
LIMON          MOSUNNY   52  38  58 S13G23    29.97F
MONUMENT HILL  MOSUNNY   41  32  70 CALM      29.98S
TRINIDAD       SUNNY     53  17  24 SE12G20   29.96F
$$

COZ042>045-048>051-090-091-172000-
...NORTHEAST COLORADO...

CITY           SKY/WX    TMP DP  RH WIND       PRES   REMARKS
GREELEY ARPT   CLOUDY    46  39  76 CALM      29.97F
AKRON          RAIN      48  48 100 SE20G30   29.99R FOG
BURLINGTON     PTSUNNY   56  50  80 SE22      29.99F
WRAY           LGT RAIN  54  51  90 E16       30.00F
STERLING       CLOUDY    52  50  93 SE14G21   29.99F
HOLYOKE        CLOUDY    55  52  88 E20G26    30.01F
FORT MORGAN    LGT RAIN  49  47  90 E20G26    29.98F
$$

COZ086-089-092>099-172000-
...SOUTHEAST COLORADO...

CITY           SKY/WX    TMP DP  RH WIND       PRES   REMARKS
PUEBLO         SUNNY     52  31  44 VRB3      29.96F
LA JUNTA       MOSUNNY   59  42  53 W6        29.94F
LAMAR          PTSUNNY   61  49  64 NW6       29.91F
SPRINGFIELD      N/A     63  24  22 S18       29.94F
$$



USA.gov is the U.S. government's official web portal to all federal, state and local government web resources and services.